COSMOS 2550

Last updated on Thu Oct 30 2025 00:02:16 GMT+0000 (Coordinated Universal Time)

1 48865U 21056A 25302.51532105 .00000681 00000+0 26532-4 0 9995 2 48865 67.1407 77.7597 0008383 269.8303 90.1891 15.33826342243344
UTC large
Height (km)
Speed (km/s)
/
Latitude / Longitude
Inclination (degrees)
Orbital Period (minutes)
Azimuth
Elevation
Range (km)
Doppler Factor

Next 0 passes for location: London (51.5072 / 0.1276)

Sorry there are no passes over London.